Terminal Aerodrome Forecast
Issued by NWS Tuscon, AZ

Home | Current Version | Previous Version | Text Only | Print | Product List | Glossary On
Versions: 1 2 3 4 5 6 7 8 9 10 11 12 13 14 15 16 17 18 19
000
FTUS45 KTWC 291700
TAFTUS
TAF
KTUS 291728Z 2918/3018 31005KT P6SM FEW090 SCT250
     FM300300 25006KT P6SM FEW100 BKN150
     FM300700 15005KT P6SM SCT200=

USA.gov is the U.S. government's official web portal to all federal, state and local government web resources and services.